Kelso-Longview, WA
on Friday, February 8, 2013

Friday
Previous Day Next Day
Daily Summary
 ActualAverage (KSPB)Record (KSPB)
Temperature
Mean Temperature °F °F  
Max Temperature 48°F °F 53°F (2000)
Min Temperature 28°F °F 25°F (2009)
Degree Days
Heating Degree Days 27    
Month to date heating degree days  
Since 1 July heating degree days  
Cooling Degree Days 0    
Month to date cooling degree days  
Year to date cooling degree days  
Moisture
Dew Point 31°F   
Average Humidity 76    
Maximum Humidity 93    
Minimum Humidity 53    
Precipitation
Precipitation 0.00 in in 0.44 in (2000)
Month to date precipitation  
Year to date precipitation  
Wind
Wind Speed 2 mph   
Max Wind Speed 12 mph   
Max Gust Speed 17 mph   
Visibility 9 miles   
Events     

Key: T is trace of precipitation, MM is missing value
Source: NWS Daily Summary
Time(PST)TemperatureDew PointHumidity Pressure Visibility Wind DirectionWind SpeedGust SpeedPrecipitationEvents Conditions
12:15 AM 30.2°F 26.6°F 86% 30.19 in 10.0 miles Calm Calm - N/A   Clear
12:35 AM 30.2°F 26.6°F 86% 30.19 in 10.0 miles Calm Calm - N/A   Clear
12:55 AM 30.2°F 26.6°F 86% 30.19 in 8.0 miles Calm Calm - N/A   Clear
1:35 AM 28.4°F 26.6°F 93% 30.20 in 6.0 miles Calm Calm - N/A   Clear
1:55 AM 30.2°F 26.6°F 86% 30.20 in 9.0 miles Calm Calm - N/A   Clear
2:15 AM 30.2°F 26.6°F 86% 30.21 in 10.0 miles Calm Calm - N/A   Clear
2:35 AM 28.4°F 24.8°F 86% 30.21 in 10.0 miles Calm Calm - N/A   Clear
2:55 AM 30.2°F 26.6°F 86% 30.21 in 8.0 miles Calm Calm - N/A   Mostly Cloudy
3:15 AM 30.2°F 28.4°F 93% 30.21 in 2.0 miles Calm Calm - N/A   Overcast
3:35 AM 30.2°F 28.4°F 93% 30.22 in 2.5 miles Calm Calm - N/A   Overcast
4:15 AM 32.0°F 30.2°F 93% 30.23 in 10.0 miles Calm Calm - N/A   Overcast
4:35 AM 32.0°F 30.2°F 93% 30.23 in 10.0 miles Calm Calm - N/A   Overcast
4:55 AM 33.8°F 30.2°F 87% 30.23 in 10.0 miles Calm Calm - N/A   Overcast
5:15 AM 33.8°F 30.2°F 87% 30.24 in 10.0 miles Calm Calm - N/A   Overcast
5:35 AM 33.8°F 30.2°F 87% 30.25 in 10.0 miles Calm Calm - N/A   Overcast
5:55 AM 33.8°F 30.2°F 87% 30.25 in 10.0 miles Calm Calm - N/A   Overcast
6:15 AM 33.8°F 30.2°F 87% 30.25 in 10.0 miles West 3.5 mph - N/A   Overcast
6:35 AM 33.8°F 30.2°F 87% 30.26 in 10.0 miles Calm Calm - N/A   Overcast
6:55 AM 33.8°F 30.2°F 87% 30.26 in 9.0 miles Calm Calm - N/A   Overcast
7:15 AM 33.8°F 30.2°F 87% 30.26 in 5.0 miles NW 3.5 mph - N/A   Overcast
7:35 AM 33.8°F 30.2°F 87% 30.26 in 7.0 miles Calm Calm - N/A   Overcast
7:55 AM 33.8°F 30.2°F 87% 30.26 in 7.0 miles WNW 4.6 mph - N/A   Overcast
8:15 AM 33.8°F 30.2°F 87% 30.28 in 9.0 miles NW 3.5 mph - N/A   Overcast
8:35 AM 35.6°F 33.8°F 93% 30.29 in 10.0 miles NW 4.6 mph - N/A   Overcast
8:55 AM 35.6°F 32.0°F 87% 30.29 in 10.0 miles West 3.5 mph - N/A   Overcast
9:15 AM 35.6°F 32.0°F 87% 30.29 in 10.0 miles Calm Calm - N/A   Overcast
9:35 AM 35.6°F 33.8°F 93% 30.29 in 7.0 miles Calm Calm - N/A   Overcast
9:55 AM 37.4°F 33.8°F 87% 30.30 in 10.0 miles Calm Calm - N/A   Overcast
10:15 AM 37.4°F 32.0°F 81% 30.30 in 10.0 miles Calm Calm - N/A   Overcast
10:35 AM 37.4°F 33.8°F 87% 30.30 in 10.0 miles NW 3.5 mph - N/A   Overcast
10:55 AM 39.2°F 35.6°F 87% 30.31 in 10.0 miles NW 4.6 mph - N/A   Overcast
11:15 AM 41.0°F 35.6°F 81% 30.31 in 10.0 miles NW 6.9 mph - N/A   Overcast
11:35 AM 41.0°F 35.6°F 81% 30.30 in 10.0 miles NNW 6.9 mph - N/A   Overcast
11:55 AM 42.8°F 35.6°F 76% 30.29 in 10.0 miles NW 4.6 mph - N/A   Overcast
12:15 PM 44.6°F 35.6°F 71% 30.28 in 10.0 miles NNW 9.2 mph - N/A   Mostly Cloudy
12:35 PM 44.6°F 33.8°F 66% 30.28 in 10.0 miles NW 10.4 mph - N/A   Mostly Cloudy
12:55 PM 44.6°F 33.8°F 66% 30.27 in 10.0 miles North 8.1 mph 16.1 mph N/A   Mostly Cloudy
1:15 PM 46.4°F 33.8°F 62% 30.27 in 10.0 miles NNW 8.1 mph - N/A   Partly Cloudy
1:35 PM 46.4°F 35.6°F 66% 30.27 in 10.0 miles NNW 11.5 mph - N/A   Partly Cloudy
1:55 PM 46.4°F 33.8°F 62% 30.26 in 10.0 miles NW 11.5 mph 16.1 mph N/A   Clear
2:15 PM 48.2°F 33.8°F 58% 30.26 in 10.0 miles NNW 9.2 mph 16.1 mph N/A   Clear
2:35 PM 48.2°F 32.0°F 54% 30.26 in 10.0 miles North 10.4 mph 17.3 mph N/A   Mostly Cloudy
2:55 PM 46.4°F 32.0°F 57% 30.26 in 10.0 miles NNW 10.4 mph - N/A   Mostly Cloudy
3:15 PM 46.4°F 32.0°F 57% 30.27 in 10.0 miles WNW 6.9 mph - N/A   Overcast
3:35 PM 46.4°F 30.2°F 53% 30.27 in 10.0 miles NW 9.2 mph - N/A   Overcast
3:55 PM 46.4°F 32.0°F 57% 30.27 in 10.0 miles NNW 9.2 mph - N/A   Overcast
4:15 PM 46.4°F 32.0°F 57% 30.27 in 10.0 miles NW 9.2 mph - N/A   Overcast
4:35 PM 46.4°F 32.0°F 57% 30.27 in 10.0 miles NNW 9.2 mph - N/A   Overcast
4:55 PM 46.4°F 32.0°F 57% 30.27 in 10.0 miles NNW 6.9 mph - N/A   Overcast
5:15 PM 44.6°F 30.2°F 57% 30.26 in 10.0 miles NNW 4.6 mph - N/A   Overcast
5:35 PM 44.6°F 30.2°F 57% 30.26 in 10.0 miles NW 6.9 mph - N/A   Overcast
5:55 PM 44.6°F 30.2°F 57% 30.27 in 10.0 miles North 3.5 mph - N/A   Overcast
6:15 PM 44.6°F 30.2°F 57% 30.27 in 10.0 miles NNE 4.6 mph - N/A   Overcast
6:35 PM 44.6°F 32.0°F 61% 30.27 in 10.0 miles Calm Calm - N/A   Overcast
6:55 PM 44.6°F 32.0°F 61% 30.27 in 10.0 miles Calm Calm - N/A   Overcast
7:15 PM 42.8°F 32.0°F 66% 30.28 in 10.0 miles Calm Calm - N/A   Overcast
7:35 PM 42.8°F 32.0°F 66% 30.28 in 10.0 miles North 3.5 mph - N/A   Overcast
7:55 PM 42.8°F 32.0°F 66% 30.27 in 10.0 miles NNE 5.8 mph - N/A   Overcast
8:15 PM 42.8°F 32.0°F 66% 30.28 in 10.0 miles NNE 5.8 mph - N/A   Overcast
8:35 PM 42.8°F 32.0°F 66% 30.28 in 10.0 miles North 4.6 mph - N/A   Overcast
8:55 PM 39.2°F 32.0°F 75% 30.28 in 10.0 miles Calm Calm - N/A   Scattered Clouds
9:15 PM 37.4°F 30.2°F 75% 30.28 in 10.0 miles WNW 4.6 mph - N/A   Clear
9:35 PM 39.2°F 32.0°F 75% 30.28 in 10.0 miles NW 3.5 mph - N/A   Clear
9:55 PM 37.4°F 32.0°F 81% 30.28 in 10.0 miles Calm Calm - N/A   Clear
10:15 PM 37.4°F 32.0°F 81% 30.28 in 10.0 miles WNW 3.5 mph - N/A   Clear
10:35 PM 37.4°F 32.0°F 81% 30.29 in 10.0 miles Calm Calm - N/A   Clear
10:55 PM 37.4°F 32.0°F 81% 30.29 in 10.0 miles NNE 3.5 mph - N/A   Clear
11:15 PM 39.2°F 33.8°F 81% 30.29 in 10.0 miles North 3.5 mph - N/A   Clear
11:35 PM 37.4°F 32.0°F 81% 30.28 in 10.0 miles Calm Calm - N/A   Clear
11:55 PM 37.4°F 32.0°F 81% 30.28 in 10.0 miles Calm Calm - N/A   Clear
Moon Phase
Feb. 08 Feb. 10 Feb. 17 Feb. 25 Mar. 04
Sunrise:07:24 AM (PST) Moon Rise:05:59 AM (PST)2/8
Sunset:05:27 PM (PST) Moon Set:04:06 PM (PST)2/8

Copyright © 2014 The Weather Underground, Inc.